Regional Weather Roundup
Issued by NWS

Home | Current Version | Previous Version | Graphics & Text | Print | Product List | Glossary On
Versions: 1 2 3 4 5 6 7 8 9 10 11 12 13 14 15 16 17 18 19 20 21 22 23 24 25 26 27 28 29 30 31 32 33 34 35 36 37 38 39 40 41 42 43 44 45 46 47 48 49 50
000
ASUS45 KCYS 110410
RWRWY

WYOMING REGIONAL WEATHER ROUNDUP
NATIONAL WEATHER SERVICE CHEYENNE WY
1000 PM MDT THU JUL 10 2014

NOTE:  "FAIR" INDICATES FEW OR NO CLOUDS BELOW 12,000 FEET
WITH NO SIGNIFICANT WEATHER AND/OR OBSTRUCTIONS TO VISIBILITY.

WYZ001-110500-
YELLOWSTONE NATIONAL PARK

CITY           SKY/WX    TMP DP  RH WIND       PRES   REMARKS
LK YELLOWSTONE   N/A     54  48  80 NW3       30.25R
W YELLOWSTONE  NOT AVBL

$$
WYZ002>013-054>058-071-098>099-110500-
NORTHERN WYOMING

CITY           SKY/WX    TMP DP  RH WIND       PRES   REMARKS
JACKSON        PTCLDY    66  52  59 CALM      30.13R
CODY           PTCLDY    68  57  68 NW6       30.04R
GREYBULL       PTCLDY    74  54  49 SW3       29.94R
WORLAND        MOCLDY    71  54  54 SE6       29.95R
SHERIDAN       MOCLDY    65  55  70 S5        29.95R
BUFFALO        CLOUDY    69  56  62 SW10      30.04R
GILLETTE       CLOUDY    70  57  63 S3        29.98R
HULETT         FAIR      68  59  73 MISG      29.99
NEWCASTLE      FAIR      68  61  77 SE10      30.03

$$
WYZ014>020-022>026-101>103-110500-
CENTRAL WYOMING

CITY           SKY/WX    TMP DP  RH WIND       PRES   REMARKS
BIG PINEY      PTCLDY    63  54  72 S8        30.21R
PINEDALE       PTCLDY    61  50  67 SE10      30.21R
DUBOIS         FAIR      64  43  45 NW6       30.18R
LANDER         MOCLDY    70  55  59 S5        30.06R
RIVERTON       MOCLDY    73  52  47 S12       30.06R
CASPER         CLOUDY    64  57  78 CALM      30.07R
DOUGLAS        CLOUDY    70  63  78 CALM      30.06R

$$
WYZ021-027>030-104>119-110500-
SOUTHERN WYOMING

CITY           SKY/WX    TMP DP  RH WIND       PRES   REMARKS
EVANSTON       CLOUDY    58  54  86 S17G26    30.22R
KEMMERER       PTCLDY    63  52  67 S6        30.24R
FORT BRIDGER   MOCLDY    61  54  78 S21G26    30.24R
ROCK SPRINGS   CLOUDY    65  55  70 S9        30.20R
DIXON          FAIR      66  53  61 NE5       30.21R
RAWLINS        LGT RAIN  62  55  77 VRB5      30.21R
SARATOGA       CLOUDY    61  54  77 W5        30.24R
LARAMIE        RAIN      60  56  86 NW6       30.25R FOG
CHEYENNE       CLOUDY    65  57  75 NW12      30.18R
TORRINGTON     CLOUDY    67  64  90 NE9       30.00F

$$


USA.gov is the U.S. government's official web portal to all federal, state and local government web resources and services.